Regional Weather Roundup
Issued by NWS

Home | Current Version | Previous Version | Graphics & Text | Print | Product List | Glossary On
Versions: 1 2 3 4 5 6 7 8 9 10 11 12 13 14 15 16 17 18 19 20 21 22 23 24 25 26 27 28 29 30 31 32 33 34 35 36 37 38 39 40 41 42 43 44 45 46 47 48 49 50
854
ASUS44 KLIX 230305
RWRLA
LOUISIANA WEATHER ROUNDUP
NATIONAL WEATHER SERVICE NEW ORLEANS LA
1000 PM CDT FRI AUG 22 2014

NOTE: "FAIR" INDICATES FEW OR NO CLOUDS BELOW 12,000 FEET WITH NO
      SIGNIFICANT WEATHER AND/OR OBSTRUCTIONS TO VISIBILITY.
      SKY/WX - SKY CONDITION AND SIGNIFICANT WEATHER.
      TMP - AIR TEMPERATURE.    DP   - DEWPOINT TEMPERATURE.
      RH  - RELATIVE HUMIDITY.  PRES - PRESSURE.
      HX  - HEAT INDEX.         WCI  - WIND CHILL INDEX.

*  THESE STATIONS ARE NOT NWS OR FAA STATIONS AND ARE NOT UNDER
   NWS QUALITY CONTROL.

LAZ040-048-061>063-065-066-069-230400-
SOUTHEAST LOUISIANA

CITY           SKY/WX    TMP DP  RH WIND       PRES   REMARKS
N.O. AUDUBON     N/A     84  75  73 MISG        N/A
N.O. INTL ARPT CLEAR     84  70  62 SW7       30.03R
N.O. LAKEFRONT CLEAR     88  72  58 SW7       30.03R
N.O. DOWNTOWN* FAIR      91  68  46 S5        30.04R HX  95
SLIDELL        CLEAR     81  75  82 CALM      30.02R
BATON ROUGE    CLEAR     81  76  84 CALM      30.03R
BOOTHVILLE     CLEAR     83  76  79 S3        30.04R
BELLE CHASSE   PTCLDY    81  74  79 SW5       30.03R
BOGALUSA*      FAIR      82  76  84 CALM      30.04R
GALLIANO*      NOT AVBL
NEW ROADS*     FAIR      79  77  94 CALM      30.03R
GONZALES*      FAIR      81  80  97 CALM      30.03R
HAMMOND*       CLEAR     82  75  78 CALM      30.05R
HOUMA*         CLEAR     82  75  78 CALM      30.04S
PORT FOURCHON* CLEAR     88  73  62 S5        30.06R HX  96

$$

LAZ041-044-053-054-230400-
SOUTHWEST LOUISIANA

CITY           SKY/WX    TMP DP  RH WIND       PRES   REMARKS
LAKE CHARLES   PTCLDY    81  77  88 CALM      30.03R
LAFAYETTE      PTCLDY    82  76  81 SW5       30.04R
PATTERSON      PTCLDY    79  77  94 S3        30.07S
SALT POINT       N/A     89  77  67 VRB5      30.04R HX 101
NEW IBERIA     PTCLDY    81  76  84 CALM      30.04S
CHENAULT AIRPK CLEAR     84  73  70 SW5       30.05R

$$

LAZ027-028-230400-
CENTRAL LOUISIANA

CITY           SKY/WX    TMP DP  RH WIND       PRES   REMARKS
FORT POLK      CLEAR     79  75  87 SE5       30.04R
ALEXANDRIA INT CLEAR     79  75  87 CALM      30.01R
ALEXANDRIA     CLEAR     77  75  93 CALM      30.03R FOG

$$

LAZ001-002-230400-
NORTHWEST LOUISIANA

CITY           SKY/WX    TMP DP  RH WIND       PRES   REMARKS
SHREVEPORT     CLEAR     83  72  69 S6        30.01R
BARKSDALE AFB  CLEAR     78  71  79 S5        30.01R
DTN SHREVEPORT CLEAR     86  71  60 S7        30.01R

$$

LAZ014-016-230400-
NORTHEAST LOUISIANA

CITY           SKY/WX    TMP DP  RH WIND       PRES   REMARKS
MONROE         CLEAR     77  73  87 CALM      30.03R
TALLULAH       CLEAR     78  74  87 S3        30.02S

$$




USA.gov is the U.S. government's official web portal to all federal, state and local government web resources and services.